Regional Weather Roundup
Issued by NWS

Current Version | Previous Version | Text Only | Print | Product List | Glossary On
Versions: 1 2 3 4 5 6 7 8 9 10 11 12 13 14 15 16 17 18 19 20 21 22 23 24 25 26 27 28 29 30 31 32 33 34 35 36 37 38 39 40 41 42 43 44 45 46 47 48 49 50
000
ASUS45 KSLC 190210
RWRUT

UTAH REGIONAL WEATHER ROUNDUP
NATIONAL WEATHER SERVICE SALT LAKE CITY UT
800 PM MDT THU SEP 18 2014

UTZ001>011-023>025-190300-

NORTHERN UTAH

CITY           SKY/WX    TMP DP  RH WIND       PRES   REMARKS
HILL AFB       MOCLDY    77  52  41 NW18G30   29.84R
LOGAN          MOCLDY    67  56  67 N23G35    29.89R
OGDEN          PTCLDY    73  51  46 N20G37    29.80R
PROVO AIRPORT  NOT AVBL
SALT LAKE CITY PTCLDY    84  45  25 SW6       29.76R
VERNAL         CLEAR     70  52  52 W6        29.90S
WENDOVER       CLOUDY    73  48  40 N28G36    29.81R
HEBER CITY     MOCLDY    73  43  33 S5        29.89S
WEST JORDAN    CLEAR     79  45  29 S3        29.81S

$$

UTZ012>022-026-027-190300-

SOUTHERN UTAH

CITY           SKY/WX    TMP DP  RH WIND       PRES   REMARKS
BRYCE CANYON   CLEAR     58  44  60 SE6       30.11S
CEDAR CITY     CLEAR     73  49  42 SW10      29.94R
MILFORD        CLEAR     80  47  31 SW12      29.86S
MOAB/CYNLANDS  CLEAR     78  39  24 SW6       29.83S
PRICE          CLEAR     77  39  25 SE7       29.96R
ST GEORGE      MOCLDY    90  52  27 W7        29.77R
KANAB            N/A     77  48  36 S3        29.93S

$$

REGIONAL REPORTS     COLORADO/ARIZONA

CITY           SKY/WX    TMP DP  RH WIND       PRES   REMARKS
CRAIG, CO      CLEAR     66  37  34 CALM      29.98R
GRAND JUNCTION CLEAR     76  44  32 NW5       29.87F
RIFLE          CLEAR     72  39  30 E5        29.92S
MONTROSE       CLEAR     72  46  39 S6        29.98R
CORTEZ         CLEAR     63  45  51 CALM      30.00R
PAGE, AZ       CLEAR     84  47  27 NE3       29.85S
GRAND CANYON   PTCLDY    66  50  56 SW3       30.06R
KINGMAN        CLEAR     83  53  35 SW10      29.84R
FLAGSTAFF      CLOUDY    62  57  83 W3        30.12R

$$

REGIONAL REPORTS    NEVADA/IDAHO/WYOMING

CITY           SKY/WX    TMP DP  RH WIND       PRES   REMARKS
LAS VEGAS, NV  PTCLDY    92  30  11 SW16      29.67S
ELY            CLEAR     71  43  36 S8        29.94R
ELKO           PTCLDY    68  55  63 NE10      29.90R
POCATELLO, ID  CLEAR     64  55  72 S6        29.86F
BURLEY         CLOUDY    67  50  54 SE3       29.84S HAZE
EVANSTON, WY   PTCLDY    67  38  34 W10       30.01R
ROCK SPRINGS   CLEAR     72  35  25 S20       29.97S

$$


USA.gov is the U.S. government's official web portal to all federal, state and local government web resources and services.